This demonstration page uses our WeatherBlox Daily Observations layout. Learn more.

36.17497, -115.13722

Hourly Observations for April 9, 2018

Temp ( °F °C ) Dew Point ( °F °C ) Humidity (%) Winds ( mph kmh ) Pressure ( in mb ) Visibility ( mi km ) Precip ( " mm )
12:53 am 00:53 Clear 67 19.4 -2 -18.9 6 6 N 12 19 29.97 1015 10 16.09344 0 0
1:53 am 01:53 Clear 67 19.4 -3 -19.4 6 6 N 9 15 29.97 1015 10 16.09344 0 0
2:53 am 02:53 Clear 66 18.9 -1 -18.3 7 7 NNW 10 17 29.97 1015 10 16.09344 0 0
3:53 am 03:53 Clear 66 18.9 2 -16.7 8 8 N 12 19 30 1016 10 16.09344 0 0
4:53 am 04:53 Clear 66 18.9 8 -13.3 10 10 N 12 19 30.03 1017 10 16.09344 0 0
5:53 am 05:53 Clear 65 18.3 12 -11.1 13 13 N 16 26 30.03 1017 10 16.09344 0 0
6:53 am 06:53 Sunny 66 18.9 13 -10.6 13 13 N 17 28 30.09 1019 10 16.09344 0 0
7:53 am 07:53 Sunny 67 19.4 13 -10.6 12 12 N 15 24 30.12 1020 10 16.09344 0 0
8:53 am 08:53 Sunny 70 21.1 14 -10 11 11 NNW 15 24 30.15 1021 10 16.09344 0 0
9:53 am 09:53 Sunny 71 21.7 13 -10.6 10 10 N 5 7 30.15 1021 10 16.09344 0 0
10:53 am 10:53 Sunny 73 22.8 15 -9.4 11 11 E 8 13 30.18 1022 10 16.09344 0 0
11:53 am 11:53 Sunny 76 24.4 17 -8.3 11 11 ENE 10 17 30.15 1021 10 16.09344 0 0
12:53 pm 12:53 Sunny 77 25 16 -8.9 10 10 E 16 26 30.12 1020 10 16.09344 0 0
1:53 pm 13:53 Sunny 78 25.6 14 -10 9 9 N 6 9 30.09 1019 10 16.09344 0 0
2:53 pm 14:53 Sunny 80 26.7 12 -11.1 7 7 NE 7 11 30.09 1019 10 16.09344 0 0
3:53 pm 15:53 Sunny 81 27.2 11 -11.7 7 7 NW 10 17 30.06 1018 10 16.09344 0 0
4:53 pm 16:53 Sunny 81 27.2 12 -11.1 7 7 N 7 11 30.06 1018 10 16.09344 0 0
5:53 pm 17:53 Sunny 80 26.7 17 -8.3 9 9 E 9 15 30.03 1017 10 16.09344 0 0
6:53 pm 18:53 Sunny 78 25.6 18 -7.8 10 10 E 9 15 30.06 1018 10 16.09344 0 0
7:53 pm 19:53 Clear 76 24.4 19 -7.2 12 12 ESE 7 11 30.06 1018 10 16.09344 0 0
8:53 pm 20:53 Clear 75 23.9 19 -7.2 12 12 S 3 6 30.09 1019 10 16.09344 0 0
9:53 pm 21:53 Clear 71 21.7 22 -5.6 16 16 W 6 9 30.09 1019 10 16.09344 0 0
10:53 pm 22:53 Clear 67 19.4 25 -3.9 20 20 NW 7 11 30.09 1019 10 16.09344 0 0
11:53 pm 23:53 Clear 67 19.4 23 -5 19 19 NW 3 6 30.09 1019 10 16.09344 0 0

Powered by AerisWeather